Location: Acts Church of Fort Worth
(32.6786°N, 97.2668°W)
Time: 09:37:58
(UTC+00:00)

Cosmos 2278 Rocket - Pass Details

Date: 18 January 2026
Orbit: 839 x 846 km, 71.0° (Epoch: 9 February)

Event Time Altitude Azimuth Distance (km) Brightness Sun altitude
Exits shadow 11:02:24 60° 57° (ENE) 955 2.5 -30.9°
Drops below altitude 10° 11:07:10 10° 25° (NNE) 2,461 4.8 -29.9°
Sets 11:09:38 0° 24° (NNE) 3,400 5.6 -29.4°
